Location: Newark
(0.5300°S, 127.4800°E)
Time: 16:45:04
(UTC+00:00)

A-11 Canister half - Pass Details

Date: 20 September 2019
Orbit: 1514 x 1686 km, 47.2° (Epoch: 21 October)

Event Time Altitude Azimuth Distance (km) Brightness Sun altitude
Rises 20:26:34 0° 196° (SSW) 4,896 11.5 -14.2°
Reaches altitude 10° 20:30:46 10° 182° (S) 3,882 11.1 -13.2°
Maximum altitude 20:38:01 23° 134° (SE) 2,947 11.1 -11.4°
Drops below altitude 10° 20:45:03 10° 86° (E) 3,775 12.7 -9.6°
Sets 20:48:59 0° 72° (ENE) 4,729 13.2 -8.6°
